Regional Weather Roundup
Issued by NWS

Home | Current Version | Previous Version | Text Only | Print | Product List | Glossary On
Versions: 1 2 3 4 5 6 7 8 9 10 11 12 13 14 15 16 17 18 19 20 21 22 23 24 25 26 27 28 29 30 31 32 33 34 35 36 37 38 39 40 41 42 43 44 45 46 47 48 49 50
000
ASUS45 KBOI 190110
RWRID
WEATHER ROUNDUP FOR IDAHO
NATIONAL WEATHER SERVICE BOISE ID
700 PM MDT SAT APR 18 2015

NOTE: "FAIR" INDICATES FEW OR NO CLOUDS BELOW 12000 FEET
WITH NO SIGNIFICANT WEATHER AND/OR OBSTRUCTIONS TO VISIBILITY

IDZ012-014-190200-
SOUTHWEST IDAHO


CITY           SKY/WX    TMP DP  RH WIND       PRES   REMARKS
BOISE          SUNNY     71  22  15 NW24G32   30.02F
CALDWELL       SUNNY     70  27  19 NW16G24   30.06S
MOUNTAIN HOME  SUNNY     69  26  19 NW23G35   30.01S
$$

IDZ016-017-190200-
SOUTHCENTRAL IDAHO


CITY           SKY/WX    TMP DP  RH WIND       PRES   REMARKS
BURLEY         FAIR      65  24  21 W14G24    29.99F
JEROME         FAIR      65  26  23 SW22G30   30.01F
TWIN FALLS     SUNNY     65  25  22 W17G29    30.02F
$$

IDZ019>023-190200-
SOUTHEAST IDAHO


CITY           SKY/WX    TMP DP  RH WIND       PRES   REMARKS
IDAHO FALLS    SUNNY     66  16  14 N20       30.00S
POCATELLO      SUNNY     69  23  17 NW5       29.98F
REXBURG        SUNNY     63  19  18 N8        30.00S
$$

IDZ006-010-011-018-031-032-190200-
CENTRAL IDAHO MOUNTAINS


CITY           SKY/WX    TMP DP  RH WIND       PRES   REMARKS
MCCALL         SUNNY     57  20  23 N17G24    30.15R
HAILEY         MOSUNNY   64  28  25 SE7       30.02S
STANLEY          N/A     58  16  19 NW7G17    30.13S
SALMON         SUNNY     64  16  15 N13G18    30.05R
CHALLIS        SUNNY     63  13  14 NW14      30.06S
$$

IDZ002-004-006-007-026-190200-
NORTHERN IDAHO


CITY           SKY/WX    TMP DP  RH WIND       PRES   REMARKS
LEWISTON       LGT RAIN  69  23  17 W10       30.17F
LOWELL           N/A     59  41  51 N3        30.15S
COEUR D`ALENE  MOSUNNY   64  21  19 W15       30.16S
MULLAN PASS    SUNNY     48  15  26 VRB7      30.20F
$$


USA.gov is the U.S. government's official web portal to all federal, state and local government web resources and services.